Temperature
21 19 18 19 19 19 20 19 19 20 20 20 19 19 19 20 20 19 19 20 20 21 21 20 20 20 20 20 19 19 19 18 18 17 17 17 16 16 16 16 15 15 15 15
19 19 20 21 20 20 20 19 19 20 21 20 19 19 19 19 19 19 20 20 20 20 20 20 20 20 20 20 19 19 18 18 18 17 17 17 16 16 16 16 15 15 15 15
19 20 22 22 21 21 20 19 19 20 20 20 19 19 18 19 19 20 20 20 21 21 21 20 20 20 20 19 19 19 18 18 18 17 17 17 16 16 16 16 15 15 15 15
20 21 22 21 21 21 20 21 21 20 18 17 19 17 18 18 18 19 19 20 20 21 21 20 20 20 19 19 19 19 18 18 18 17 17 16 16 16 16 15 15 15 15 15
20 21 21 21 22 21 20 21 20 20 18 18 18 17 17 18 18 18 19 20 20 20 21 20 20 20 19 19 19 18 18 18 17 17 17 16 16 16 16 15 15 15 15 15
21 22 22 22 22 22 21 20 19 17 17 17 18 18 18 17 18 18 19 20 20 20 20 20 20 20 19 19 19 18 18 18 17 17 17 16 16 16 16 16 15 15 15 15
20 21 22 23 21 21 20 18 17 17 17 17 18 18 18 18 19 19 19 19 20 20 20 20 20 20 19 19 18 18 18 18 17 17 17 16 16 16 16 16 15 15 15 15
19 20 22 22 21 20 19 18 17 17 17 17 18 18 18 19 20 20 20 20 20 20 20 20 20 20 19 19 19 18 18 18 17 17 17 17 16 16 16 16 15 15 15 15
19 20 22 23 22 21 19 18 18 17 18 17 17 18 19 19 18 19 19 19 19 20 20 20 20 19 19 19 19 18 18 18 17 17 17 17 16 16 16 16 16 15 15 15
20 20 21 22 22 22 20 18 16 17 17 17 18 18 18 18 18 18 18 19 19 20 19 19 19 19 19 19 18 18 18 18 17 17 17 17 16 16 16 16 16 15 15 15
21 19 21 22 21 21 20 19 17 16 17 17 17 18 19 18 18 18 18 19 19 20 20 19 19 19 19 19 18 18 18 18 17 17 17 17 16 16 16 16 15 15 15 15
20 18 18 20 21 22 21 20 18 17 17 16 17 17 20 18 18 18 18 19 19 19 19 19 19 19 19 18 18 18 18 18 17 17 17 16 16 16 16 15 15 15 15 15
19 18 18 19 20 21 21 21 19 17 16 16 17 18 19 18 18 19 19 19 19 19 19 19 19 19 18 18 18 18 18 17 17 17 17 16 16 16 16 15 15 15 15 14
19 18 18 19 19 20 21 22 21 18 17 17 17 18 18 18 17 18 19 19 19 19 19 19 18 18 18 18 18 18 17 17 17 17 17 16 16 16 15 15 15 15 15 14
19 19 20 20 20 21 21 22 21 20 18 18 18 18 18 18 18 18 19 19 19 18 18 18 18 18 18 18 18 18 17 17 17 17 16 16 16 16 15 15 15 15 14 14
17 19 20 20 21 21 21 21 21 21 20 19 19 18 18 18 18 18 18 18 18 18 18 18 18 18 18 18 18 17 17 17 17 16 16 16 15 15 15 15 15 14 14 14
17 18 18 18 19 21 20 21 21 20 20 19 18 18 17 17 17 18 18 18 18 18 18 18 18 18 18 18 17 17 17 17 16 16 16 15 15 15 15 15 14 14 14 14
17 17 16 17 19 19 19 20 21 20 20 19 19 18 18 18 18 19 19 18 18 18 18 18 18 18 18 17 17 17 17 16 16 16 16 15 15 15 15 14 14 14 14 13
17 17 16 16 17 18 20 20 20 19 19 18 18 18 18 18 18 17 18 19 18 18 18 18 18 18 17 17 17 17 16 16 16 16 15 15 15 15 14 14 14 13 13 13
16 15 15 15 17 18 19 20 21 19 18 18 18 17 17 17 15 15 18 18 18 18 18 17 17 17 17 17 16 16 16 16 15 15 15 15 14 14 14 14 13 13 13 13
16 15 15 15 17 17 18 19 20 18 18 18 18 18 18 17 17 18 18 18 18 17 17 17 17 17 16 16 16 16 16 15 15 15 15 14 14 14 13 13 13 13 12 12
16 15 14 14 16 17 18 19 18 18 19 19 18 18 18 18 18 17 17 17 17 17 16 16 16 16 16 16 15 15 15 15 15 14 14 14 14 13 13 13 13 12 12 12
15 15 14 15 16 17 18 19 20 20 19 19 19 18 18 18 17 17 17 17 16 16 16 16 16 16 15 15 15 15 14 14 14 14 14 14 13 13 13 12 12 12 12 12
15 15 14 15 16 17 18 19 19 20 19 19 19 18 18 18 17 17 16 16 16 16 15 15 15 15 15 14 14 14 14 14 14 13 13 13 13 12 12 12 12 11 11 11
16 15 14 14 16 17 17 18 19 19 19 18 18 18 18 17 17 16 16 16 16 15 15 15 15 14 14 14 14 13 13 13 13 13 13 12 12 12 12 11 11 11 11 11
14 15 14 14 16 15 17 18 18 18 18 18 17 17 17 17 17 16 16 15 15 15 15 14 14 14 14 13 13 13 13 12 12 12 12 12 12 11 11 11 11 11 11 11
Wind_Speed
1 3 3 7 7 5 4 3 3 3 2 4 4 3 4 3 4 5 5 6 7 8 6 7 8 8 8 7 8 7 7 5 5 4 3 3 2 1 2 1 3 3 3 4
3 3 8 5 4 4 3 3 2 1 1 3 3 2 2 3 5 8 9 9 8 7 6 7 8 8 7 8 8 7 7 6 5 4 3 2 2 1 0 1 1 2 2 2
5 6 5 5 4 4 2 4 3 2 3 5 3 2 3 1 2 5 6 7 7 10 10 8 8 8 7 8 8 8 7 6 5 5 3 3 3 3 2 2 2 1 1 1
4 4 3 4 3 4 1 2 4 4 4 1 1 1 3 2 1 4 5 6 7 8 8 8 8 8 8 7 7 7 7 6 5 5 5 4 3 1 2 1 1 2 1 1
3 2 3 4 4 5 4 3 5 4 4 1 1 3 4 1 3 4 6 7 7 8 9 9 9 8 8 7 7 7 6 5 4 5 6 5 3 2 1 0 1 2 2 1
4 2 3 4 3 5 6 6 6 5 4 0 3 3 3 5 7 6 6 6 7 8 8 7 7 7 6 6 6 6 6 4 4 4 4 5 4 3 1 0 1 1 2 2
3 2 1 3 4 3 6 6 3 3 2 3 2 2 5 6 7 8 9 7 7 7 8 8 8 7 7 6 6 6 6 4 3 4 3 4 4 4 3 2 2 1 1 1
1 2 3 3 5 5 3 7 6 4 3 2 1 2 5 3 5 7 8 7 7 7 7 8 8 8 7 7 6 6 6 4 4 4 3 3 4 3 2 3 2 2 2 2
4 4 3 3 4 7 5 3 6 5 2 2 2 2 3 3 5 6 6 7 7 7 8 8 8 7 7 7 6 6 6 4 4 3 3 3 3 3 3 2 2 2 2 2
5 2 3 2 3 2 6 6 5 4 4 1 1 2 4 5 7 6 7 8 7 7 7 7 7 7 6 6 5 5 4 4 3 3 3 3 3 3 2 2 1 1 1 1
4 4 1 2 4 5 3 3 4 4 4 5 3 5 5 9 10 10 8 7 8 8 8 7 6 5 6 5 4 4 3 3 2 3 2 2 2 2 1 1 1 1 1 1
2 5 2 5 5 6 6 6 7 5 3 4 4 5 2 8 9 9 8 7 7 7 6 5 5 5 5 5 4 4 3 3 3 3 2 2 2 2 1 1 1 1 1 1
4 5 3 4 5 1 2 4 5 6 5 4 4 4 1 6 7 7 8 7 6 6 6 5 5 5 5 4 4 4 3 3 2 3 3 2 1 2 1 1 0 0 0 0
5 4 6 7 6 4 3 3 6 6 4 4 5 5 3 6 7 7 7 7 7 6 6 5 4 4 4 4 4 3 3 3 3 3 3 2 1 1 1 1 0 0 0 0
4 2 3 4 5 4 4 5 6 5 7 7 7 9 9 10 10 9 8 8 8 6 6 5 5 3 3 3 2 2 2 2 3 4 3 2 1 1 1 0 0 0 1 1
3 2 0 3 2 1 2 5 6 5 5 6 7 5 5 6 6 7 7 9 8 7 6 5 5 4 4 4 3 2 2 2 3 3 2 1 1 1 1 0 1 0 1 2
3 3 2 2 4 3 2 5 6 5 5 9 8 7 7 7 8 9 8 8 8 7 5 5 5 4 4 4 4 4 3 3 3 2 2 1 1 0 1 1 1 1 1 1
5 4 3 1 3 2 6 4 5 6 4 5 7 8 11 10 8 6 7 9 7 6 5 4 4 3 3 3 3 3 3 3 3 2 1 1 1 0 0 1 1 2 1 1
6 6 4 3 2 4 4 2 4 6 1 3 9 10 9 10 8 4 2 6 7 6 5 4 4 4 3 3 4 4 4 3 3 1 1 1 1 1 0 1 2 2 1 2
5 6 5 4 4 5 6 5 2 7 1 3 8 12 11 9 5 4 4 5 6 5 4 4 4 4 4 2 4 5 4 3 1 1 1 1 1 1 1 2 2 2 1 2
4 3 4 4 4 6 6 4 4 6 7 5 8 11 11 7 7 7 7 6 6 5 5 5 6 5 3 3 5 5 3 1 2 1 0 0 1 1 2 1 1 1 2 2
7 6 5 5 4 7 4 3 6 6 4 7 7 9 8 8 8 9 8 7 6 5 5 5 5 4 3 3 5 4 1 2 1 1 0 1 1 2 1 0 1 1 1 2
5 7 6 7 6 4 2 4 4 6 7 6 6 7 10 10 9 8 7 7 6 5 4 4 5 4 2 2 4 3 1 1 0 1 1 1 2 2 1 1 1 1 1 2
2 2 4 2 2 0 2 4 5 6 7 7 8 9 10 10 9 8 7 6 5 4 4 4 5 4 2 1 2 2 1 1 2 0 1 1 2 2 2 2 2 2 2 3
3 3 4 2 1 3 3 3 6 7 8 9 8 8 9 10 9 8 6 5 5 4 3 4 4 3 2 1 1 1 1 1 1 1 1 2 2 2 2 2 3 4 4 5
3 5 6 6 7 6 4 4 6 8 8 9 9 7 7 8 8 7 6 5 5 4 4 3 3 2 1 1 0 0 0 1 1 1 2 2 2 2 2 2 4 5 6 8
Wind_Direction
197 104 209 213 195 192 186 174 197 230 211 135 160 193 238 194 148 155 164 168 167 164 160 144 139 139 136 134 131 127 124 125 116 105 103 95 83 54 51 65 94 88 81 78
48 241 228 208 192 187 186 147 188 297 70 122 154 227 263 185 182 175 173 175 175 161 149 140 138 143 143 145 141 136 136 134 131 130 133 134 131 119 74 353 51 70 78 67
196 239 222 176 181 170 180 176 181 145 43 47 94 8 327 334 163 167 174 172 167 164 157 150 142 146 142 147 153 150 149 145 140 129 104 78 57 33 20 3 341 324 328 21
230 243 177 163 173 156 201 208 143 118 87 357 101 151 293 259 148 160 176 175 173 166 157 154 152 152 152 157 153 150 150 145 141 130 123 124 126 154 233 241 269 307 321 340
251 211 156 173 195 161 184 154 113 114 116 69 38 116 280 216 187 195 189 185 177 171 162 163 164 161 155 151 148 149 143 142 144 137 140 136 140 182 232 311 334 329 328 332
240 235 188 188 178 147 136 82 61 55 78 98 234 153 242 216 201 193 185 177 172 168 162 156 154 143 140 138 138 140 137 145 147 142 146 151 157 163 137 350 328 320 319 323
322 304 230 133 105 65 91 90 61 23 22 251 221 159 242 229 195 177 178 179 171 163 157 154 148 145 148 147 148 149 145 148 154 153 168 176 175 171 177 198 204 217 283 295
126 274 230 163 151 159 145 135 150 170 199 268 343 228 262 223 162 159 164 162 156 159 165 166 163 159 160 159 155 157 157 163 168 170 180 178 177 172 191 199 190 200 218 237
172 243 254 174 151 141 134 151 160 134 138 111 275 282 341 70 120 138 149 150 159 162 165 168 165 167 167 167 167 166 166 172 181 178 169 175 180 180 191 197 187 207 234 236
154 194 249 200 100 73 143 145 104 118 139 155 284 248 210 178 162 156 162 162 163 157 156 159 164 169 169 168 167 164 166 176 184 183 181 181 194 198 194 173 190 218 236 225
140 149 265 151 183 188 147 131 125 125 147 150 186 258 220 182 172 165 168 164 158 157 161 163 164 161 156 152 150 152 160 158 173 187 178 157 183 190 177 179 212 215 224 226
135 126 205 244 251 186 165 165 145 147 185 166 161 259 267 171 167 156 157 160 157 157 158 155 152 144 146 151 151 155 161 159 171 170 160 165 158 134 143 183 218 165 176 240
119 111 86 348 339 335 170 175 155 135 124 148 157 243 355 140 139 149 152 153 150 146 141 136 132 138 152 161 164 165 168 170 163 142 133 134 125 138 162 191 211 99 107 352
114 114 156 189 220 222 211 181 151 127 140 171 188 178 175 151 144 149 149 151 146 143 142 140 140 148 156 162 167 168 175 165 139 125 124 121 146 182 191 184 122 170 241 331
100 136 211 236 245 203 189 181 162 155 168 166 186 175 190 178 165 161 150 139 134 135 140 146 147 153 150 144 147 155 166 157 140 127 131 161 168 121 119 101 280 343 346 322
101 140 67 325 302 162 181 182 169 168 160 150 145 184 194 162 140 141 144 140 142 148 152 149 145 145 150 157 160 156 154 157 136 136 159 176 132 84 61 330 312 341 314 318
116 121 100 287 310 49 283 225 182 167 168 155 170 190 148 137 150 159 153 146 150 156 154 153 158 162 167 171 165 165 165 145 128 141 156 163 152 128 315 354 11 327 294 310
137 119 126 143 55 202 246 272 163 147 169 169 153 155 155 153 152 144 145 146 147 151 150 156 161 160 163 157 148 139 124 119 123 128 148 161 145 177 332 12 340 316 301 296
150 136 122 124 178 260 288 275 158 137 158 180 149 143 136 124 91 65 135 142 146 151 153 153 154 148 133 132 133 116 113 112 112 130 204 220 186 204 300 303 288 282 297 299
94 107 123 135 168 222 240 267 180 112 166 244 151 149 146 126 129 207 190 138 130 127 129 127 117 104 109 123 120 110 112 108 133 216 239 237 196 202 240 255 265 279 294 291
107 97 137 157 200 256 256 265 117 140 213 206 164 155 152 157 172 168 145 129 127 124 117 115 109 106 117 122 111 109 112 177 223 215 190 20 234 228 234 248 275 301 311 324
168 161 172 152 183 245 257 131 165 194 162 152 152 152 141 130 124 129 131 127 124 115 107 111 109 106 109 114 111 108 153 251 241 150 106 319 297 276 274 239 282 303 308 316
183 185 177 179 204 246 236 175 162 140 131 138 143 141 131 128 132 133 132 131 131 126 122 115 117 106 89 106 120 129 224 268 81 76 297 289 306 306 276 226 244 287 288 285
279 126 118 133 256 298 95 103 102 116 123 130 131 132 129 133 138 137 139 137 134 130 129 121 113 110 101 88 104 149 189 114 91 73 294 296 306 307 305 276 242 240 252 263
223 129 115 131 188 85 53 115 118 105 106 110 113 121 133 134 139 144 146 146 144 136 133 129 133 142 159 143 93 80 93 88 70 6 315 307 296 281 289 287 268 254 247 240
219 166 160 198 203 167 193 185 137 123 125 128 120 111 123 134 140 139 145 151 146 142 135 132 137 146 161 141 110 326 336 109 108 4 319 307 300 295 286 290 307 299 284 282
Height
1500 1506 1509 1506 1505 1507 1510 1513 1516 1512 1507 1509 1513 1514 1511 1510 1512 1513 1515 1517 1519 1520 1523 1525 1526 1528 1530 1531 1532 1533 1534 1534 1535 1535 1535 1535 1535 1535 1535 1534 1534 1533 1532 1530
1505 1507 1500 1499 1501 1504 1508 1513 1515 1511 1506 1509 1514 1514 1511 1511 1511 1512 1514 1516 1518 1520 1523 1525 1526 1528 1529 1531 1532 1533 1534 1534 1535 1535 1535 1535 1535 1535 1535 1534 1534 1533 1532 1531
1505 1501 1495 1498 1501 1505 1508 1511 1512 1513 1510 1510 1514 1520 1516 1513 1512 1513 1514 1515 1517 1519 1521 1523 1525 1527 1529 1530 1532 1532 1534 1534 1535 1535 1535 1535 1535 1535 1535 1534 1533 1533 1532 1531
1500 1495 1495 1498 1501 1503 1511 1504 1506 1510 1518 1525 1521 1534 1522 1517 1514 1514 1515 1515 1517 1518 1520 1522 1525 1527 1528 1530 1531 1532 1533 1534 1535 1535 1535 1535 1535 1535 1534 1534 1533 1533 1532 1530
1499 1495 1496 1499 1498 1498 1504 1501 1505 1510 1518 1525 1524 1533 1529 1519 1518 1516 1514 1515 1516 1518 1519 1522 1524 1526 1528 1530 1531 1532 1533 1534 1534 1535 1535 1535 1535 1535 1534 1534 1533 1532 1531 1530
1495 1492 1492 1493 1493 1495 1498 1504 1510 1517 1523 1535 1527 1531 1531 1521 1515 1514 1513 1514 1516 1517 1519 1521 1524 1526 1528 1530 1531 1532 1533 1533 1534 1535 1535 1535 1535 1535 1534 1533 1532 1531 1530 1529
1499 1494 1490 1491 1496 1499 1502 1517 1532 1536 1540 1537 1523 1527 1525 1511 1508 1509 1511 1513 1515 1517 1519 1521 1524 1526 1528 1529 1530 1531 1532 1533 1534 1534 1534 1535 1535 1534 1534 1533 1532 1531 1530 1529
1508 1508 1493 1491 1495 1502 1505 1514 1532 1541 1543 1537 1525 1528 1518 1506 1505 1507 1509 1512 1514 1517 1519 1521 1523 1525 1527 1528 1530 1531 1532 1532 1533 1534 1534 1534 1534 1534 1533 1533 1532 1531 1530 1529
1506 1505 1490 1488 1490 1495 1505 1512 1513 1526 1530 1537 1532 1522 1512 1507 1507 1508 1510 1512 1514 1516 1519 1521 1522 1524 1526 1527 1529 1530 1531 1532 1532 1533 1533 1533 1534 1533 1533 1532 1531 1530 1529 1528
1495 1503 1493 1489 1490 1492 1496 1504 1517 1525 1536 1541 1533 1527 1523 1513 1510 1510 1511 1512 1514 1516 1518 1520 1522 1523 1525 1527 1528 1530 1531 1531 1532 1532 1533 1533 1533 1533 1532 1532 1531 1530 1529 1528
1491 1502 1499 1493 1495 1498 1500 1504 1512 1522 1526 1538 1541 1531 1506 1507 1506 1508 1509 1511 1513 1515 1517 1519 1521 1523 1525 1527 1528 1529 1530 1531 1531 1532 1532 1532 1531 1531 1531 1531 1530 1529 1528 1527
1490 1501 1506 1498 1488 1487 1491 1497 1507 1521 1525 1527 1532 1528 1500 1502 1503 1505 1508 1510 1512 1514 1516 1518 1520 1522 1524 1526 1528 1529 1529 1530 1530 1531 1531 1531 1531 1530 1530 1529 1529 1528 1527 1526
1489 1501 1513 1510 1503 1493 1492 1492 1497 1506 1517 1526 1531 1523 1502 1502 1504 1506 1508 1510 1512 1514 1517 1518 1520 1521 1524 1526 1527 1528 1529 1529 1529 1530 1530 1529 1529 1529 1528 1528 1527 1526 1526 1525
1486 1498 1507 1513 1505 1496 1493 1491 1493 1503 1517 1521 1518 1514 1508 1505 1505 1506 1508 1510 1512 1514 1516 1518 1520 1522 1523 1525 1526 1527 1528 1528 1528 1528 1528 1528 1528 1527 1527 1526 1526 1525 1524 1523
1486 1496 1495 1494 1489 1489 1489 1490 1491 1497 1503 1511 1510 1508 1505 1503 1503 1505 1507 1510 1512 1514 1516 1518 1519 1521 1523 1524 1525 1526 1527 1527 1527 1527 1527 1527 1527 1526 1526 1525 1524 1523 1523 1521
1488 1494 1493 1494 1488 1487 1489 1488 1490 1492 1495 1500 1502 1505 1499 1501 1503 1505 1508 1509 1512 1514 1516 1518 1519 1520 1521 1523 1524 1525 1525 1526 1526 1526 1526 1526 1525 1525 1524 1523 1522 1522 1521 1520
1491 1494 1500 1504 1494 1491 1499 1490 1489 1490 1490 1494 1501 1501 1499 1502 1503 1505 1507 1509 1511 1513 1515 1517 1518 1519 1521 1522 1523 1524 1524 1525 1525 1525 1524 1524 1523 1523 1522 1521 1520 1519 1518 1517
1489 1495 1503 1505 1502 1511 1497 1482 1481 1486 1489 1488 1490 1493 1495 1498 1501 1504 1506 1508 1510 1513 1514 1516 1517 1519 1520 1521 1522 1523 1523 1523 1523 1523 1523 1522 1521 1521 1520 1519 1518 1517 1516 1515
1483 1492 1503 1509 1510 1504 1491 1483 1482 1487 1492 1488 1489 1492 1496 1499 1502 1507 1508 1508 1510 1512 1513 1515 1517 1518 1519 1520 1520 1521 1521 1521 1521 1521 1521 1520 1519 1519 1518 1517 1516 1515 1514 1513
1484 1488 1501 1508 1509 1510 1493 1480 1479 1484 1496 1489 1488 1491 1495 1497 1507 1508 1507 1508 1510 1511 1513 1515 1516 1517 1518 1519 1519 1519 1520 1520 1520 1519 1519 1518 1518 1517 1516 1515 1514 1513 1512 1510
1491 1495 1501 1505 1506 1499 1484 1479 1480 1496 1496 1487 1487 1489 1491 1494 1498 1502 1504 1507 1509 1510 1512 1514 1515 1516 1517 1517 1518 1518 1518 1518 1518 1518 1517 1516 1516 1515 1514 1513 1512 1511 1510 1508
1490 1496 1501 1504 1507 1501 1479 1479 1483 1484 1481 1484 1486 1488 1490 1493 1497 1500 1503 1506 1508 1509 1511 1513 1514 1515 1516 1516 1517 1516 1517 1517 1516 1516 1515 1514 1513 1512 1511 1511 1509 1508 1507 1505
1484 1484 1487 1490 1491 1480 1477 1477 1477 1478 1480 1483 1485 1488 1490 1493 1497 1500 1503 1505 1507 1509 1510 1512 1513 1513 1514 1515 1515 1515 1515 1515 1514 1513 1512 1512 1511 1510 1509 1508 1507 1506 1504 1503
1478 1477 1481 1484 1481 1478 1477 1477 1478 1479 1481 1483 1485 1488 1490 1493 1496 1499 1502 1504 1506 1508 1509 1510 1511 1512 1512 1513 1513 1513 1513 1512 1511 1510 1510 1509 1508 1507 1506 1505 1504 1503 1501 1500
1476 1476 1480 1483 1480 1479 1479 1478 1479 1480 1482 1484 1486 1488 1490 1493 1496 1498 1501 1503 1505 1506 1508 1509 1510 1510 1511 1511 1511 1511 1510 1510 1509 1508 1507 1506 1505 1504 1503 1502 1501 1499 1498 1497
1473 1474 1478 1480 1476 1477 1478 1479 1480 1481 1483 1485 1486 1489 1491 1493 1495 1497 1499 1502 1503 1505 1506 1507 1508 1508 1508 1509 1508 1508 1508 1507 1506 1505 1504 1503 1502 1501 1499 1498 1497 1496 1495 1493